SR9WXM Weather Reports


Display with metric or nautical units.
time (UTC)temp
F
wind
direction
speed
MPH
gust
MPH
rain 1hr
in
rain 24hr
in
rain mn
in
humidity
%
barometer
mb
20260905191411 54 195 8.0 15.0 0.00 0.00 0.00 100
20260905191211 54 232 9.0 17.0 0.00 0.00 0.00 100
20260905191011 54 247 8.0 14.0 0.00 0.00 0.00 100
20260905190811 54 216 10.0 18.0 0.00 0.00 0.00 100
20260905190611 54 166 11.0 19.0 0.00 0.00 0.00 100
20260905190411 54 180 10.0 13.0 0.00 0.00 0.00 100
20260905190211 54 175 11.0 21.0 0.00 0.00 0.00 100
20260905190011 54 194 9.0 17.0 0.00 0.00 0.00 100
20260905185811 54 194 9.0 15.0 0.00 0.00 0.00 100
20260905185611 54 182 10.0 23.0 0.00 0.00 0.00 100
20260905185409 54 189 11.0 17.0 0.00 0.00 0.00 100
20260905185209 54 206 10.0 17.0 0.00 0.00 0.00 100
20260905185009 54 195 9.0 14.0 0.00 0.00 0.00 100
20260905184809 54 193 9.0 16.0 0.00 0.00 0.00 100
20260905184609 54 192 8.0 13.0 0.00 0.00 0.00 100
20260905184408 54 199 7.0 13.0 0.00 0.00 0.00 100
20260905184208 54 153 10.0 14.0 0.00 0.00 0.00 100
20260905184008 54 140 8.0 13.0 0.00 0.00 0.00 100
20260905183809 54 187 8.0 14.0 0.00 0.00 0.00 100
20260905183609 54 214 9.0 16.0 0.00 0.00 0.00 100
20260905183407 54 248 9.0 16.0 0.00 0.00 0.00 100
20260905183207 55 142 8.0 15.0 0.00 0.00 0.00 100
20260905183007 55 123 8.0 17.0 0.00 0.00 0.00 100
20260905182807 55 297 8.0 17.0 0.00 0.00 0.00 100
20260905182607 55 138 7.0 15.0 0.00 0.00 0.00 100
20260905182407 55 174 8.0 15.0 0.00 0.00 0.00 100
20260905182209 55 147 8.0 11.0 0.00 0.00 0.00 100
20260905182007 55 160 10.0 16.0 0.00 0.00 0.00 100
20260905181759 55 197 10.0 17.0 0.00 0.00 0.00 100
20260905181559 55 187 10.0 17.0 0.00 0.00 0.00 100
20260905181358 55 151 10.0 16.0 0.00 0.00 0.00 100
20260905181158 55 178 10.0 21.0 0.00 0.00 0.00 100
20260905180958 55 212 10.0 21.0 0.00 0.00 0.00 100
20260905180758 54 184 10.0 14.0 0.00 0.00 0.00 100
20260905180558 54 156 10.0 17.0 0.00 0.00 0.00 100
20260905180358 54 195 9.0 17.0 0.00 0.00 0.00 100
20260905180157 54 169 10.0 16.0 0.00 0.00 0.00 100
20260905175957 54 138 11.0 16.0 0.00 0.00 0.00 100
20260905175757 54 171 10.0 14.0 0.00 0.00 0.00 100
20260905175557 54 228 8.0 14.0 0.00 0.00 0.00 100
20260905175355 54 176 9.0 14.0 0.00 0.00 0.00 100
20260905175155 54 174 10.0 15.0 0.00 0.00 0.00 100
20260905174955 54 152 10.0 16.0 0.00 0.00 0.00 100
20260905174755 54 149 10.0 16.0 0.00 0.00 0.00 100
20260905174600 54 165 12.0 16.0 0.00 0.00 0.00 100
20260905174355 54 201 10.0 16.0 0.00 0.00 0.00 100
20260905174155 54 202 10.0 16.0 0.00 0.00 0.00 100
20260905173955 54 244 10.0 16.0 0.00 0.00 0.00 100
20260905173755 55 63 9.0 17.0 0.00 0.00 0.00 100
20260905173555 55 153 8.0 17.0 0.00 0.00 0.00 100
20260905173353 55 193 9.0 13.0 0.00 0.00 0.00 100
20260905173153 55 180 11.0 18.0 0.00 0.00 0.00 100
20260905172953 55 165 10.0 15.0 0.00 0.00 0.00 100
20260905172753 55 191 10.0 15.0 0.00 0.00 0.00 100
20260905172553 55 178 11.0 16.0 0.00 0.00 0.00 100
20260905172353 55 173 10.0 14.0 0.00 0.00 0.00 100
20260905172153 55 173 12.0 16.0 0.00 0.00 0.00 100
20260905171952 55 170 12.0 16.0 0.00 0.00 0.00 100
20260905171752 55 167 12.0 20.0 0.00 0.00 0.00 100
20260905171552 55 167 10.0 20.0 0.00 0.00 0.00 100
20260905171350 55 164 10.0 15.0 0.00 0.00 0.00 100
20260905171150 55 135 10.0 17.0 0.00 0.00 0.00 100
20260905170950 55 144 10.0 17.0 0.00 0.00 0.00 100
20260905170750 55 179 9.0 15.0 0.00 0.00 0.00 100
20260905170550 55 184 12.0 18.0 0.00 0.00 0.00 100
20260905170351 55 165 11.0 17.0 0.00 0.00 0.00 100
20260905170151 55 202 12.0 22.0 0.00 0.00 0.00 100
20260905165951 56 190 9.0 22.0 0.00 0.00 0.00 100
20260905165750 56 175 9.0 15.0 0.00 0.00 0.00 100
20260905165550 56 178 10.0 16.0 0.00 0.00 0.00 100
20260905165348 56 211 10.0 18.0 0.00 0.00 0.00 100
20260905165148 56 191 11.0 18.0 0.00 0.00 0.00 100
20260905164948 56 205 13.0 21.0 0.00 0.00 0.00 100
20260905164748 57 193 10.0 18.0 0.00 0.00 0.00 100
20260905164548 57 175 13.0 21.0 0.00 0.00 0.00 100
20260905164348 57 178 14.0 21.0 0.00 0.00 0.00 100
20260905164148 57 164 12.0 20.0 0.00 0.00 0.00 100
20260905163948 57 159 13.0 20.0 0.00 0.00 0.00 100
20260905163747 57 170 14.0 22.0 0.00 0.00 0.00 100
20260905163547 57 182 14.0 22.0 0.00 0.00 0.00 100
20260905163345 57 153 13.0 20.0 0.00 0.00 0.00 100
20260905163146 57 146 14.0 27.0 0.00 0.00 0.00 100
20260905162946 57 182 17.0 27.0 0.00 0.00 0.00 100
20260905162746 57 173 12.0 22.0 0.00 0.00 0.00 100
20260905162546 57 151 11.0 17.0 0.00 0.00 0.00 100
20260905162346 58 170 12.0 20.0 0.00 0.00 0.00 100
20260905162146 58 134 12.0 18.0 0.00 0.00 0.00 100
20260905161946 58 159 15.0 25.0 0.00 0.00 0.00 100
20260905161746 58 169 14.0 19.0 0.00 0.00 0.00 100
20260905161545 58 171 14.0 24.0 0.00 0.00 0.00 100
20260905161343 58 161 13.0 19.0 0.00 0.00 0.00 100
20260905161143 58 169 12.0 16.0 0.00 0.00 0.00 100
20260905160943 58 196 12.0 16.0 0.00 0.00 0.00 100
20260905160743 58 162 10.0 15.0 0.00 0.00 0.00 100
20260905160543 58 151 9.0 15.0 0.00 0.00 0.00 100
20260905160343 58 161 11.0 18.0 0.00 0.00 0.00 100
20260905160143 58 174 9.0 18.0 0.00 0.00 0.00 100
20260905155943 58 180 10.0 16.0 0.00 0.00 0.00 100
20260905155743 58 137 11.0 16.0 0.00 0.00 0.00 100
20260905155543 58 158 12.0 24.0 0.00 0.00 0.00 100
20260905155341 58 162 14.0 24.0 0.00 0.00 0.00 100
20260905155141 58 195 11.0 18.0 0.00 0.00 0.00 100
20260905154941 58 167 10.0 17.0 0.00 0.00 0.00 100
20260905154741 58 139 12.0 18.0 0.00 0.00 0.00 100
20260905154541 58 147 11.0 18.0 0.00 0.00 0.00 100
20260905154332 58 180 13.0 20.0 0.00 0.00 0.00 100
20260905154132 58 227 13.0 20.0 0.00 0.00 0.00 100
20260905153932 58 187 13.0 20.0 0.00 0.00 0.00 100
20260905153732 59 170 14.0 17.0 0.00 0.00 0.00 100
20260905153532 59 149 12.0 22.0 0.00 0.00 0.00 100
20260905153330 59 144 12.0 22.0 0.00 0.00 0.00 100
20260905153130 59 167 12.0 18.0 0.00 0.00 0.00 100
20260905152930 59 154 11.0 20.0 0.00 0.00 0.00 100
20260905152730 59 143 12.0 20.0 0.00 0.00 0.00 100
20260905152530 59 147 13.0 19.0 0.00 0.00 0.00 100
20260905152330 59 135 12.0 19.0 0.00 0.00 0.00 100
20260905152130 59 187 10.0 18.0 0.00 0.00 0.00 100
20260905151930 59 150 8.0 18.0 0.00 0.00 0.00 100
20260905151730 59 125 10.0 16.0 0.00 0.00 0.00 100
20260905151530 59 157 10.0 18.0 0.00 0.00 0.00 100
20260905151328 59 157 9.0 15.0 0.00 0.00 0.00 100
20260905151126 59 153 9.0 16.0 0.00 0.00 0.00 100
20260905150926 59 163 10.0 18.0 0.00 0.00 0.00 100
20260905150726 59 182 14.0 21.0 0.00 0.00 0.00 100
20260905150526 59 140 11.0 20.0 0.00 0.00 0.00 100
20260905150326 59 177 11.0 15.0 0.00 0.00 0.00 100
20260905150126 59 157 12.0 24.0 0.00 0.00 0.00 100
20260905145926 59 174 14.0 24.0 0.00 0.00 0.00 100
20260905145726 59 178 12.0 20.0 0.00 0.00 0.00 100
20260905145526 59 151 10.0 20.0 0.00 0.00 0.00 100
20260905145324 59 127 10.0 16.0 0.00 0.00 0.00 100
20260905145124 59 143 10.0 13.0 0.00 0.00 0.00 100
20260905144924 59 147 8.0 13.0 0.00 0.00 0.00 100
20260905144724 59 157 10.0 21.0 0.00 0.00 0.00 100
20260905144524 59 188 12.0 21.0 0.00 0.00 0.00 100
20260905144324 59 163 10.0 20.0 0.00 0.00 0.00 100
20260905144124 59 173 11.0 20.0 0.00 0.00 0.00 100
20260905143923 59 146 10.0 16.0 0.00 0.00 0.00 100
20260905143723 59 130 9.0 16.0 0.00 0.00 0.00 100
20260905143523 59 124 11.0 17.0 0.00 0.00 0.00 100
20260905143321 59 141 11.0 17.0 0.00 0.00 0.00 100
20260905143121 59 151 11.0 17.0 0.00 0.00 0.00 100
20260905142921 59 130 12.0 16.0 0.00 0.00 0.00 100
20260905142721 58 123 10.0 15.0 0.00 0.00 0.00 100
20260905142522 58 161 9.0 17.0 0.00 0.00 0.00 100
20260905142322 58 159 9.0 15.0 0.00 0.00 0.00 100
20260905142122 58 139 10.0 16.0 0.00 0.00 0.00 100
20260905141921 57 174 12.0 16.0 0.00 0.00 0.00 100
20260905141721 57 162 11.0 16.0 0.00 0.00 0.00 100
20260905141521 57 139 11.0 20.0 0.00 0.00 0.00 100
20260905141319 57 160 12.0 20.0 0.00 0.00 0.00 100
20260905141119 57 159 12.0 19.0 0.00 0.00 0.00 100
20260905140919 58 156 11.0 19.0 0.00 0.00 0.00 100
20260905140719 58 171 10.0 15.0 0.00 0.00 0.00 100
20260905140519 59 184 11.0 18.0 0.00 0.00 0.00 100
20260905140319 59 175 10.0 17.0 0.00 0.00 0.00 100
20260905140119 60 160 10.0 16.0 0.00 0.00 0.00 100
20260905135919 60 174 13.0 20.0 0.00 0.00 0.00 100
20260905135718 60 183 9.0 20.0 0.00 0.00 0.00 100
20260905135518 59 160 8.0 15.0 0.00 0.00 0.00 100
20260905135317 59 182 7.0 15.0 0.00 0.00 0.00 100
20260905135117 58 143 7.0 18.0 0.00 0.00 0.00 100
20260905134917 58 154 9.0 18.0 0.00 0.00 0.00 100
20260905134717 58 166 10.0 18.0 0.00 0.00 0.00 100
20260905134517 57 163 11.0 18.0 0.00 0.00 0.00 100
20260905134317 57 156 10.0 13.0 0.00 0.00 0.00 100
20260905134117 57 140 10.0 16.0 0.00 0.00 0.00 100
20260905133917 57 136 9.0 14.0 0.00 0.00 0.00 100
20260905133717 57 147 9.0 13.0 0.00 0.00 0.00 100
20260905133517 57 147 12.0 22.0 0.00 0.00 0.00 100
20260905133315 57 174 12.0 22.0 0.00 0.00 0.00 100
20260905133115 57 130 12.0 20.0 0.00 0.00 0.00 100
20260905132915 58 118 10.0 18.0 0.00 0.00 0.00 100
20260905132715 58 217 11.0 18.0 0.00 0.00 0.00 100
20260905132515 58 157 11.0 18.0 0.00 0.00 0.00 100
20260905132315 57 147 13.0 19.0 0.00 0.00 0.00 100
20260905132115 57 173 13.0 23.0 0.00 0.00 0.00 100
20260905131915 57 189 13.0 23.0 0.00 0.00 0.00 100
20260905131715 56 173 11.0 18.0 0.00 0.00 0.00 100
20260905131515 56 186 10.0 16.0 0.00 0.00 0.00 100
20260905131313 56 193 12.0 17.0 0.00 0.00 0.00 100
20260905131113 56 156 12.0 18.0 0.00 0.00 0.00 100
20260905130913 57 160 13.0 20.0 0.00 0.00 0.00 100
20260905130703 58 186 14.0 22.0 0.00 0.00 0.00 100
20260905130504 58 171 14.0 22.0 0.00 0.00 0.00 100
20260905130303 58 172 13.0 22.0 0.00 0.00 0.00 100
20260905125903 58 152 12.0 19.0 0.00 0.00 0.00 100
20260905125703 58 158 10.0 19.0 0.00 0.00 0.00 100
20260905125503 57 176 9.0 15.0 0.00 0.00 0.00 100
20260905125301 57 198 10.0 17.0 0.00 0.00 0.00 100
20260905125101 57 185 10.0 16.0 0.00 0.00 0.00 100
20260905124901 57 176 12.0 27.0 0.00 0.00 0.00 100
20260905124701 57 158 11.0 17.0 0.00 0.00 0.00 100
20260905124501 57 165 13.0 24.0 0.00 0.00 0.00 100
20260905124300 57 182 13.0 24.0 0.00 0.00 0.00 100
20260905124100 57 140 10.0 16.0 0.00 0.00 0.00 100
20260905123900 57 123 8.0 12.0 0.00 0.00 0.00 100
20260905123700 57 105 8.0 13.0 0.00 0.00 0.00 100
20260905123501 57 122 8.0 12.0 0.00 0.00 0.00 100
20260905123259 57 159 10.0 15.0 0.00 0.00 0.00 100
20260905123059 56 169 8.0 13.0 0.00 0.00 0.00 100
20260905122859 56 193 10.0 16.0 0.00 0.00 0.00 100
20260905122659 57 187 9.0 16.0 0.00 0.00 0.00 100
20260905122459 57 135 10.0 16.0 0.00 0.00 0.00 100
20260905122259 57 149 10.0 20.0 0.00 0.00 0.00 100
20260905122058 57 164 10.0 20.0 0.00 0.00 0.00 100
20260905121858 57 167 7.0 11.0 0.00 0.00 0.00 100
20260905121658 57 137 10.0 17.0 0.00 0.00 0.00 100
20260905121458 57 138 15.0 22.0 0.00 0.00 0.00 100
20260905121256 57 141 14.0 20.0 0.00 0.00 0.00 100
20260905121056 58 169 9.0 17.0 0.00 0.00 0.00 100
20260905120856 58 145 8.0 18.0 0.00 0.00 0.00 100
20260905120656 58 180 8.0 14.0 0.00 0.00 0.00 100
20260905120500 58 167 8.0 14.0 0.00 0.00 0.00 100
20260905120256 57 138 11.0 17.0 0.00 0.00 0.00 100
20260905120056 57 169 13.0 19.0 0.00 0.00 0.00 100
20260905115856 56 180 10.0 19.0 0.00 0.00 0.00 100
20260905115656 56 135 9.0 14.0 0.00 0.00 0.00 100
20260905115456 56 168 12.0 17.0 0.00 0.00 0.00 100
20260905115254 56 175 13.0 17.0 0.00 0.00 0.00 100
20260905115054 56 147 10.0 14.0 0.00 0.00 0.00 100
20260905114854 56 209 7.0 14.0 0.00 0.00 0.00 100
20260905114654 55 216 8.0 13.0 0.00 0.00 0.00 100
20260905114454 55 149 9.0 12.0 0.00 0.00 0.00 100
20260905114255 56 201 10.0 16.0 0.00 0.00 0.00 100
20260905114055 56 186 13.0 18.0 0.00 0.00 0.00 100
20260905113855 56 211 13.0 18.0 0.00 0.00 0.00 100
20260905113655 56 200 10.0 16.0 0.00 0.00 0.00 100
20260905113455 56 168 7.0 13.0 0.00 0.00 0.00 100
20260905113253 56 158 9.0 14.0 0.00 0.00 0.00 100
20260905113053 56 195 9.0 14.0 0.00 0.00 0.00 100
20260905112853 56 215 9.0 12.0 0.00 0.00 0.00 100
20260905112653 56 182 9.0 15.0 0.00 0.00 0.00 100
20260905112453 56 151 8.0 15.0 0.00 0.00 0.00 100
20260905112253 56 249 11.0 19.0 0.00 0.00 0.00 100
20260905112053 56 149 14.0 19.0 0.00 0.00 0.00 100
20260905111853 56 118 11.0 20.0 0.00 0.00 0.00 100
20260905111653 56 130 12.0 20.0 0.00 0.00 0.00 100
20260905111453 56 193 14.0 24.0 0.00 0.00 0.00 100
20260905111251 56 187 12.0 18.0 0.00 0.00 0.00 100
20260905111051 56 156 13.0 26.0 0.00 0.00 0.00 100
20260905110851 56 149 10.0 16.0 0.00 0.00 0.00 100
20260905110651 56 238 10.0 18.0 0.00 0.00 0.00 100
20260905110451 56 208 9.0 13.0 0.00 0.00 0.00 100
20260905110249 56 180 8.0 14.0 0.00 0.00 0.00 100
20260905110049 56 177 7.0 9.0 0.00 0.00 0.00 100
20260905105849 56 142 8.0 13.0 0.00 0.00 0.00 100
20260905105649 56 220 8.0 13.0 0.00 0.00 0.00 100
20260905105449 55 225 7.0 11.0 0.00 0.00 0.00 100
20260905105247 55 236 8.0 16.0 0.00 0.00 0.00 100
20260905105047 54 173 8.0 15.0 0.00 0.00 0.00 100
20260905104847 54 170 11.0 16.0 0.00 0.00 0.00 100
20260905104647 54 177 12.0 16.0 0.00 0.00 0.00 100
20260905104447 54 200 9.0 15.0 0.00 0.00 0.00 100
20260905104247 54 163 8.0 14.0 0.00 0.00 0.00 100
20260905104047 54 210 8.0 13.0 0.00 0.00 0.00 100
20260905103847 54 169 8.0 15.0 0.00 0.00 0.00 100
20260905103647 54 153 6.0 15.0 0.00 0.00 0.00 100
20260905103447 54 120 7.0 10.0 0.00 0.00 0.00 100
20260905103236 54 162 10.0 16.0 0.00 0.00 0.00 100
20260905103036 54 162 8.0 15.0 0.00 0.00 0.00 100
20260905102836 54 172 10.0 16.0 0.00 0.00 0.00 100
20260905102636 54 170 11.0 20.0 0.00 0.00 0.00 100
20260905102436 54 174 14.0 23.0 0.00 0.00 0.00 100
20260905102235 54 197 13.0 18.0 0.00 0.00 0.00 100
20260905102035 54 192 10.0 17.0 0.00 0.00 0.00 100
20260905101835 54 167 10.0 15.0 0.00 0.00 0.00 100
20260905101635 53 144 12.0 15.0 0.00 0.00 0.00 100
20260905101435 53 162 11.0 16.0 0.00 0.00 0.00 100
20260905101233 53 171 12.0 20.0 0.00 0.00 0.00 100
20260905101033 53 157 13.0 20.0 0.00 0.00 0.00 100
20260905100833 53 144 11.0 17.0 0.00 0.00 0.00 100
20260905100633 53 178 11.0 17.0 0.00 0.00 0.00 100
20260905100434 54 201 11.0 19.0 0.00 0.00 0.00 100
20260905100233 54 225 13.0 20.0 0.00 0.00 0.00 100
20260905100033 54 209 12.0 20.0 0.00 0.00 0.00 100
20260905095833 54 180 10.0 16.0 0.00 0.00 0.00 100
20260905095633 54 149 7.0 12.0 0.00 0.00 0.00 100
20260905095433 53 153 10.0 22.0 0.00 0.00 0.00 100
20260905095231 53 183 12.0 22.0 0.00 0.00 0.00 100
20260905095031 53 187 12.0 21.0 0.00 0.00 0.00 100
20260905094831 53 184 12.0 17.0 0.00 0.00 0.00 100
20260905094631 53 172 11.0 20.0 0.00 0.00 0.00 100
20260905094431 53 174 14.0 20.0 0.00 0.00 0.00 100
20260905094230 53 198 14.0 18.0 0.00 0.00 0.00 100
20260905094030 53 207 13.0 18.0 0.00 0.00 0.00 100
20260905093830 53 189 13.0 19.0 0.00 0.00 0.00 100
20260905093631 54 171 12.0 17.0 0.00 0.00 0.00 100
20260905093430 54 182 14.0 19.0 0.00 0.00 0.00 100
20260905093229 54 155 10.0 15.0 0.00 0.00 0.00 100
20260905093029 54 168 10.0 15.0 0.00 0.00 0.00 100
20260905092829 53 178 11.0 16.0 0.00 0.00 0.00 100
20260905092629 53 211 14.0 22.0 0.00 0.00 0.00 100
20260905092429 53 226 13.0 22.0 0.00 0.00 0.00 100
20260905092229 53 198 13.0 21.0 0.00 0.00 0.00 100
20260905092028 53 221 13.0 21.0 0.00 0.00 0.00 100
20260905091828 53 182 12.0 17.0 0.00 0.00 0.00 100
20260905091628 53 173 12.0 16.0 0.00 0.00 0.00 100
20260905091428 53 188 11.0 16.0 0.00 0.00 0.00 100
20260905091226 53 192 12.0 20.0 0.00 0.00 0.00 100
20260905091026 53 157 10.0 20.0 0.00 0.00 0.00 100
20260905090826 53 122 10.0 14.0 0.00 0.00 0.00 100
20260905090626 53 154 11.0 16.0 0.00 0.00 0.00 100
20260905090426 52 170 11.0 17.0 0.00 0.00 0.00 100
20260905090227 52 177 11.0 17.0 0.00 0.00 0.00 100
20260905090026 52 184 12.0 17.0 0.00 0.00 0.00 100
20260905085826 51 178 13.0 17.0 0.00 0.00 0.00 100
20260905085626 51 163 10.0 13.0 0.00 0.00 0.00 100
20260905085426 51 198 11.0 17.0 0.00 0.00 0.00 100
20260905085224 51 155 11.0 17.0 0.00 0.00 0.00 100
20260905085024 51 109 9.0 15.0 0.00 0.00 0.00 100
20260905084824 51 139 11.0 20.0 0.00 0.00 0.00 100
20260905084624 50 156 11.0 20.0 0.00 0.00 0.00 100
20260905084424 50 116 10.0 12.0 0.00 0.00 0.00 100
20260905084224 50 158 9.0 13.0 0.00 0.00 0.00 100
20260905084024 50 149 8.0 14.0 0.00 0.00 0.00 100
20260905083823 50 152 10.0 15.0 0.00 0.00 0.00 100
20260905083624 49 141 9.0 13.0 0.00 0.00 0.00 100
20260905083424 49 139 8.0 13.0 0.00 0.00 0.00 100
20260905083222 49 161 8.0 14.0 0.00 0.00 0.00 100
20260905083022 49 161 9.0 13.0 0.00 0.00 0.00 100
20260905082826 49 147 10.0 13.0 0.00 0.00 0.00 100
20260905082622 49 144 11.0 17.0 0.00 0.00 0.00 100
20260905082422 49 186 12.0 22.0 0.00 0.00 0.00 100
20260905082222 49 196 10.0 14.0 0.00 0.00 0.00 100
20260905082022 49 192 12.0 16.0 0.00 0.00 0.00 100
20260905081822 49 189 10.0 14.0 0.00 0.00 0.00 100
20260905081622 49 168 11.0 18.0 0.00 0.00 0.00 100
20260905081422 49 157 11.0 18.0 0.00 0.00 0.00 100
20260905081220 49 163 11.0 16.0 0.00 0.00 0.00 100
20260905081020 49 131 11.0 15.0 0.00 0.00 0.00 100
20260905080820 49 174 12.0 18.0 0.00 0.00 0.00 100
20260905080620 49 167 13.0 18.0 0.00 0.00 0.00 100
20260905080420 49 160 13.0 16.0 0.00 0.00 0.00 100
20260905080220 49 165 12.0 18.0 0.00 0.00 0.00 100
20260905080020 49 187 12.0 19.0 0.00 0.00 0.00 100
20260905075820 49 209 11.0 19.0 0.00 0.00 0.00 100
20260905075612 49 148 11.0 17.0 0.00 0.00 0.00 100
20260905075412 49 153 11.0 16.0 0.00 0.00 0.00 100
20260905075210 49 166 11.0 16.0 0.00 0.00 0.00 100
20260905075010 49 180 9.0 14.0 0.00 0.00 0.00 100
20260905074810 49 185 10.0 14.0 0.00 0.00 0.00 100
20260905074610 49 194 10.0 16.0 0.00 0.00 0.00 100
20260905074410 48 184 11.0 20.0 0.00 0.00 0.00 100
20260905074210 48 207 12.0 20.0 0.00 0.00 0.00 100
20260905074010 48 145 12.0 17.0 0.00 0.00 0.00 100
20260905073810 48 136 10.0 13.0 0.00 0.00 0.00 100
20260905073610 48 140 10.0 15.0 0.00 0.00 0.00 100
20260905073410 48 139 10.0 16.0 0.00 0.00 0.00 100
20260905073208 48 138 10.0 15.0 0.00 0.00 0.00 100
20260905073008 48 179 10.0 15.0 0.00 0.00 0.00 100
20260905072808 48 167 10.0 14.0 0.00 0.00 0.00 100
20260905072608 48 127 10.0 14.0 0.00 0.00 0.00 100
20260905072408 48 170 10.0 16.0 0.00 0.00 0.00 100
20260905072208 48 186 12.0 18.0 0.00 0.00 0.00 100
20260905072008 48 179 12.0 18.0 0.00 0.00 0.00 100
20260905071808 48 146 11.0 16.0 0.00 0.00 0.00 100
20260905071608 48 183 12.0 16.0 0.00 0.00 0.00 100
20260905071407 48 197 11.0 16.0 0.00 0.00 0.00 100
20260905071205 48 206 11.0 15.0 0.00 0.00 0.00 100
20260905071005 48 227 12.0 19.0 0.00 0.00 0.00 100
20260905070805 49 198 10.0 15.0 0.00 0.00 0.00 100
20260905070605 49 190 10.0 14.0 0.00 0.00 0.00 100
20260905070405 49 172 11.0 17.0 0.00 0.00 0.00 100
20260905070205 49 176 12.0 17.0 0.00 0.00 0.00 100
20260905070006 49 173 11.0 21.0 0.00 0.00 0.00 100
20260905065806 49 146 10.0 18.0 0.00 0.00 0.00 100
20260905065606 49 166 10.0 14.0 0.00 0.00 0.00 100
20260905065406 49 177 10.0 13.0 0.00 0.00 0.00 100
20260905065203 49 171 10.0 13.0 0.00 0.00 0.00 100
20260905065001 49 150 11.0 17.0 0.00 0.00 0.00 100
20260905064801 49 164 11.0 17.0 0.00 0.00 0.00 100
20260905064601 49 186 11.0 18.0 0.00 0.00 0.00 100
20260905064401 49 187 11.0 18.0 0.00 0.00 0.00 100
20260905064200 49 154 10.0 16.0 0.00 0.00 0.00 100
20260905064001 49 162 10.0 16.0 0.00 0.00 0.00 100
20260905063801 49 180 10.0 14.0 0.00 0.00 0.00 100
20260905063601 49 196 10.0 15.0 0.00 0.00 0.00 100
20260905063401 49 180 8.0 13.0 0.00 0.00 0.00 100
20260905063159 49 230 10.0 18.0 0.00 0.00 0.00 100
20260905062959 50 175 11.0 22.0 0.00 0.00 0.00 100
20260905062759 50 121 10.0 14.0 0.00 0.00 0.00 100
20260905062559 50 126 10.0 14.0 0.00 0.00 0.00 100
20260905062359 50 155 10.0 14.0 0.00 0.00 0.00 100
20260905062159 50 162 10.0 15.0 0.00 0.00 0.00 100
20260905061958 50 199 11.0 17.0 0.00 0.00 0.00 100
20260905061758 50 174 10.0 14.0 0.00 0.00 0.00 100
20260905061558 50 184 10.0 17.0 0.00 0.00 0.00 100
20260905061358 50 140 10.0 14.0 0.00 0.00 0.00 100
20260905061156 50 161 11.0 17.0 0.00 0.00 0.00 100
20260905060956 50 144 11.0 16.0 0.00 0.00 0.00 100
20260905060757 50 164 11.0 17.0 0.00 0.00 0.00 100
20260905060556 50 158 11.0 15.0 0.00 0.00 0.00 100
20260905060356 50 172 13.0 19.0 0.00 0.00 0.00 100
20260905060156 50 198 14.0 22.0 0.00 0.00 0.00 100
20260905055956 50 205 13.0 28.0 0.00 0.00 0.00 100
20260905055756 50 187 13.0 28.0 0.00 0.00 0.00 100
20260905055556 51 193 13.0 19.0 0.00 0.00 0.00 100
20260905055356 51 204 14.0 17.0 0.00 0.00 0.00 100
20260905055154 51 204 12.0 17.0 0.00 0.00 0.00 100
20260905054954 51 213 11.0 17.0 0.00 0.00 0.00 100
20260905054754 51 169 11.0 16.0 0.00 0.00 0.00 100
20260905054554 51 133 8.0 16.0 0.00 0.00 0.00 100
20260905054354 51 177 9.0 18.0 0.00 0.00 0.00 100
20260905054154 51 184 8.0 14.0 0.00 0.00 0.00 100
20260905053954 51 147 8.0 11.0 0.00 0.00 0.00 100
20260905053753 51 178 8.0 13.0 0.00 0.00 0.00 100
20260905053554 51 173 8.0 12.0 0.00 0.00 0.00 100
20260905053354 51 170 9.0 15.0 0.00 0.00 0.00 100
20260905053152 51 176 9.0 15.0 0.00 0.00 0.00 100
20260905052952 51 205 9.0 14.0 0.00 0.00 0.00 100
20260905052752 51 234 8.0 12.0 0.00 0.00 0.00 100
20260905052552 51 180 7.0 12.0 0.00 0.00 0.00 100
20260905052352 51 255 6.0 10.0 0.00 0.00 0.00 100
20260905052143 51 199 5.0 10.0 0.00 0.00 0.00 100
20260905051943 52 183 6.0 10.0 0.00 0.00 0.00 100
20260905051743 52 216 6.0 10.0 0.00 0.00 0.00 100
20260905051543 52 225 4.0 7.0 0.00 0.00 0.00 100
20260905051343 52 258 5.0 10.0 0.00 0.00 0.00 100
20260905051141 52 284 6.0 18.0 0.00 0.00 0.00 100
20260905050941 52 224 3.0 6.0 0.00 0.00 0.00 100
20260905050741 52 290 2.0 6.0 0.00 0.00 0.00 100
20260905050540 52 340 4.0 10.0 0.00 0.00 0.00 100
20260905050340 52 267 5.0 10.0 0.00 0.00 0.00 100
20260905050140 52 197 7.0 12.0 0.00 0.00 0.00 100
20260905045940 52 195 9.0 17.0 0.00 0.00 0.00 100
20260905045740 52 150 8.0 12.0 0.00 0.00 0.00 100
20260905045540 53 184 10.0 14.0 0.00 0.00 0.00 100
20260905045340 53 183 10.0 13.0 0.00 0.00 0.00 100
20260905045138 53 150 8.0 12.0 0.00 0.00 0.00 100
20260905044938 53 206 7.0 11.0 0.00 0.00 0.00 100
20260905044740 53 219 7.0 11.0 0.00 0.00 0.00 100
20260905044538 53 204 7.0 9.0 0.00 0.00 0.00 100
20260905044338 52 238 5.0 9.0 0.00 0.00 0.00 100
20260905044138 52 215 4.0 9.0 0.00 0.00 0.00 100
20260905043938 52 263 5.0 8.0 0.00 0.00 0.00 100
20260905043738 52 235 6.0 11.0 0.00 0.00 0.00 100
20260905043538 52 213 6.0 12.0 0.00 0.00 0.00 100
20260905043338 52 174 7.0 10.0 0.00 0.00 0.00 100
20260905043136 52 222 8.0 14.0 0.00 0.00 0.00 100
20260905042936 52 193 6.0 12.0 0.00 0.00 0.00 100
20260905042736 52 183 6.0 10.0 0.00 0.00 0.00 100
20260905042536 52 205 6.0 10.0 0.00 0.00 0.00 100
20260905042335 52 211 5.0 8.0 0.00 0.00 0.00 100
20260905042135 52 267 6.0 12.0 0.00 0.00 0.00 100
20260905041935 52 235 6.0 12.0 0.00 0.00 0.00 100
20260905041735 52 237 6.0 12.0 0.00 0.00 0.00 100
20260905041535 52 245 6.0 10.0 0.00 0.00 0.00 100
20260905041335 52 255 6.0 9.0 0.00 0.00 0.00 100
20260905041134 52 212 5.0 10.0 0.00 0.00 0.00 100
20260905040934 52 196 6.0 10.0 0.00 0.00 0.00 100
20260905040734 53 182 9.0 12.0 0.00 0.00 0.00 100
20260905040534 53 201 11.0 16.0 0.00 0.00 0.00 100
20260905040334 53 152 12.0 17.0 0.00 0.00 0.00 100
20260905040133 53 196 11.0 15.0 0.00 0.00 0.00 100
20260905035933 53 200 10.0 18.0 0.00 0.00 0.00 100
20260905035733 53 198 11.0 17.0 0.00 0.00 0.00 100
20260905035533 53 213 9.0 13.0 0.00 0.00 0.00 100
20260905035333 52 249 8.0 15.0 0.00 0.00 0.00 100
20260905035131 52 198 9.0 15.0 0.00 0.00 0.00 100
20260905034931 52 202 8.0 12.0 0.00 0.00 0.00 100
20260905034731 52 205 7.0 10.0 0.00 0.00 0.00 100
20260905034531 52 220 5.0 9.0 0.00 0.00 0.00 100
20260905034331 53 240 6.0 8.0 0.00 0.00 0.00 100
20260905034131 53 219 4.0 6.0 0.00 0.00 0.00 100
20260905033931 53 52 3.0 5.0 0.00 0.00 0.00 100
20260905033731 53 321 3.0 6.0 0.00 0.00 0.00 100
20260905033531 53 229 4.0 8.0 0.00 0.00 0.00 100
20260905033331 53 252 3.0 6.0 0.00 0.00 0.00 100
20260905033129 53 275 4.0 7.0 0.00 0.00 0.00 100
20260905032929 53 252 4.0 6.0 0.00 0.00 0.00 100
20260905032729 53 265 4.0 10.0 0.00 0.00 0.00 100
20260905032529 53 270 2.0 4.0 0.00 0.00 0.00 100
20260905032329 53 282 4.0 8.0 0.00 0.00 0.00 100
20260905032129 53 224 5.0 8.0 0.00 0.00 0.00 100
20260905031928 53 270 4.0 8.0 0.00 0.00 0.00 100
20260905031728 53 283 4.0 8.0 0.00 0.00 0.00 100
20260905031528 53 278 4.0 8.0 0.00 0.00 0.00 100
20260905031328 53 247 4.0 8.0 0.00 0.00 0.00 100
20260905031126 53 253 4.0 6.0 0.00 0.00 0.00 100
20260905030926 53 238 4.0 6.0 0.00 0.00 0.00 100
20260905030726 53 204 4.0 8.0 0.00 0.00 0.00 100
20260905030526 53 239 4.0 8.0 0.00 0.00 0.00 100
20260905030326 53 244 4.0 6.0 0.00 0.00 0.00 100
20260905030127 53 290 5.0 9.0 0.00 0.00 0.00 100
20260905025926 53 286 6.0 11.0 0.00 0.00 0.00 100
20260905025726 53 270 6.0 11.0 0.00 0.00 0.00 100
20260905025526 53 284 5.0 10.0 0.00 0.00 0.00 100
20260905025326 53 203 6.0 11.0 0.00 0.00 0.00 100
20260905025124 53 195 5.0 11.0 0.00 0.00 0.00 100
20260905024924 53 261 7.0 11.0 0.00 0.00 0.00 100
20260905024725 53 245 5.0 11.0 0.00 0.00 0.00 100
20260905024517 53 274 4.0 6.0 0.00 0.00 0.00 100
20260905024317 53 265 5.0 9.0 0.00 0.00 0.00 100
20260905024115 53 201 6.0 10.0 0.00 0.00 0.00 100
20260905023915 53 218 8.0 14.0 0.00 0.00 0.00 100
20260905023715 53 240 8.0 16.0 0.00 0.00 0.00 100
20260905023515 53 252 6.0 16.0 0.00 0.00 0.00 100
20260905023315 53 258 5.0 10.0 0.00 0.00 0.00 100
20260905023113 53 277 6.0 10.0 0.00 0.00 0.00 100
20260905022913 53 270 4.0 6.0 0.00 0.00 0.00 100
20260905022713 53 323 3.0 8.0 0.00 0.00 0.00 100
20260905022513 53 280 4.0 11.0 0.00 0.00 0.00 100
20260905022313 53 270 6.0 11.0 0.00 0.00 0.00 100
20260905022113 53 171 7.0 11.0 0.00 0.00 0.00 100
20260905021913 53 168 8.0 13.0 0.00 0.00 0.00 100
20260905021713 53 195 9.0 13.0 0.00 0.00 0.00 100
20260905021513 53 206 6.0 11.0 0.00 0.00 0.00 100
20260905021313 53 244 6.0 10.0 0.00 0.00 0.00 100
20260905021111 53 255 6.0 11.0 0.00 0.00 0.00 100
20260905020911 53 243 5.0 13.0 0.00 0.00 0.00 100
20260905020711 53 242 5.0 13.0 0.00 0.00 0.00 100
20260905020510 53 324 3.0 6.0 0.00 0.00 0.00 100
20260905020310 53 270 3.0 6.0 0.00 0.00 0.00 100
20260905020110 53 248 4.0 6.0 0.00 0.00 0.00 100
20260905015910 53 262 4.0 6.0 0.00 0.00 0.00 100
20260905015710 53 202 3.0 6.0 0.00 0.00 0.00 100
20260905015510 53 356 2.0 6.0 0.00 0.00 0.00 100
20260905015310 53 21 2.0 6.0 0.00 0.00 0.00 100
20260905015108 53 253 3.0 8.0 0.00 0.00 0.00 100
20260905014908 53 289 4.0 8.0 0.00 0.00 0.00 100
20260905014708 53 267 3.0 6.0 0.00 0.00 0.00 100
20260905014508 53 247 4.0 9.0 0.00 0.00 0.00 100
20260905014308 53 273 3.0 9.0 0.00 0.00 0.00 100
20260905014108 53 263 2.0 4.0 0.00 0.00 0.00 100
20260905013908 53 336 2.0 6.0 0.00 0.00 0.00 100
20260905013708 53 326 3.0 6.0 0.00 0.00 0.00 100
20260905013508 53 311 4.0 6.0 0.00 0.00 0.00 100
20260905013308 53 354 5.0 11.0 0.00 0.00 0.00 100
20260905013106 53 11 4.0 11.0 0.00 0.00 0.00 100
20260905012906 53 25 5.0 8.0 0.00 0.00 0.00 100
20260905012706 53 350 4.0 8.0 0.00 0.00 0.00 100
20260905012506 53 0 4.0 6.0 0.00 0.00 0.00 100
20260905012306 53 19 4.0 8.0 0.00 0.00 0.00 100
20260905012105 53 37 4.0 8.0 0.00 0.00 0.00 100
20260905011905 53 26 2.0 5.0 0.00 0.00 0.00 100
20260905011705 53 55 5.0 12.0 0.00 0.00 0.00 100
20260905011506 53 42 5.0 12.0 0.00 0.00 0.00 100
20260905011306 53 34 6.0 14.0 0.00 0.00 0.00 100
20260905011104 53 54 8.0 15.0 0.00 0.00 0.00 100
20260905010904 54 43 8.0 16.0 0.00 0.00 0.00 100
20260905010704 54 34 7.0 16.0 0.00 0.00 0.00 100
20260905010504 54 38 6.0 10.0 0.00 0.00 0.00 100
20260905010304 54 36 7.0 15.0 0.00 0.00 0.00 100
20260905010103 54 41 10.0 15.0 0.00 0.00 0.00 100
20260905005903 54 30 9.0 16.0 0.00 0.00 0.00 100
20260905005703 54 28 9.0 14.0 0.00 0.00 0.00 100
20260905005503 55 32 9.0 15.0 0.00 0.00 0.00 100
20260905005306 55 33 9.0 15.0 0.00 0.00 0.00 100
20260905005101 55 23 6.0 9.0 0.00 0.00 0.00 100
20260905004901 55 13 7.0 11.0 0.00 0.00 0.00 100
20260905004701 55 357 6.0 10.0 0.00 0.00 0.00 100
20260905004501 55 40 9.0 15.0 0.00 0.00 0.00 100
20260905004301 55 54 9.0 15.0 0.00 0.00 0.00 100
20260905004101 55 34 9.0 15.0 0.00 0.00 0.00 100
20260905003901 55 40 10.0 15.0 0.00 0.00 0.00 100
20260905003701 55 38 9.0 14.0 0.00 0.00 0.00 100
20260905003501 55 28 8.0 12.0 0.00 0.00 0.00 100
20260905003301 55 10 7.0 12.0 0.00 0.00 0.00 100
20260905003059 55 0 9.0 15.0 0.00 0.00 0.00 100
20260905002859 55 30 9.0 15.0 0.00 0.00 0.00 100
20260905002659 55 36 6.0 11.0 0.00 0.00 0.00 100
20260905002459 55 48 8.0 12.0 0.00 0.00 0.00 100
20260905002259 56 56 8.0 12.0 0.00 0.00 0.00 100
20260905002059 56 44 7.0 12.0 0.00 0.00 0.00 100
20260905001859 56 58 6.0 11.0 0.00 0.00 0.00 100
20260905001659 56 49 8.0 14.0 0.00 0.00 0.00 100
20260905001459 56 38 8.0 14.0 0.00 0.00 0.00 100
20260905001259 56 29 7.0 10.0 0.00 0.00 0.00 100
20260905001048 56 22 7.0 13.0 0.00 0.00 0.00 100
20260905000848 56 29 9.0 14.0 0.00 0.00 0.00 100
20260905000648 56 29 8.0 13.0 0.00 0.00 0.00 100
20260905000448 56 14 7.0 10.0 0.00 0.00 0.00 100
20260905000248 56 25 7.0 12.0 0.00 0.00 0.00 100
20260905000048 56 342 9.0 15.0 0.00 0.00 0.00 100
20260904235847 56 0 9.0 14.0 0.00 0.00 0.00 100
20260904235647 56 6 10.0 16.0 0.00 0.00 0.00 100
20260904235447 57 23 10.0 16.0 0.00 0.00 0.00 100
20260904235247 57 358 10.0 14.0 0.00 0.00 0.00 100
20260904235045 57 39 11.0 17.0 0.00 0.00 0.00 100
20260904234846 57 19 9.0 17.0 0.00 0.00 0.00 100
20260904234646 57 29 8.0 11.0 0.00 0.00 0.00 100
20260904234446 57 16 8.0 12.0 0.00 0.00 0.00 100
20260904234246 57 35 9.0 12.0 0.00 0.00 0.00 100
20260904234046 57 40 8.0 12.0 0.00 0.00 0.00 100
20260904233846 57 352 9.0 11.0 0.00 0.00 0.00 100
20260904233645 57 46 10.0 14.0 0.00 0.00 0.00 100
20260904233445 57 46 10.0 14.0 0.00 0.00 0.00 100
20260904233245 57 26 8.0 13.0 0.00 0.00 0.00 100
20260904232843 58 40 10.0 20.0 0.00 0.00 0.00 100
20260904232643 58 357 10.0 20.0 0.00 0.00 0.00 100
20260904232443 58 7 10.0 16.0 0.00 0.00 0.00 100
20260904232243 59 4 12.0 19.0 0.00 0.00 0.00 100
20260904232043 59 17 10.0 18.0 0.00 0.00 0.00 100
20260904231843 59 21 11.0 16.0 0.00 0.00 0.00 100
20260904231642 59 21 10.0 16.0 0.00 0.00 0.00 100
20260904231442 59 16 8.0 13.0 0.00 0.00 0.00 100
20260904231242 60 36 8.0 13.0 0.00 0.00 0.00 100
20260904231041 60 0 9.0 14.0 0.00 0.00 0.00 100
20260904230841 60 353 10.0 18.0 0.00 0.00 0.00 100
20260904230641 60 20 8.0 18.0 0.00 0.00 0.00 100
20260904230441 61 336 6.0 10.0 0.00 0.00 0.00 100
20260904230241 62 308 8.0 12.0 0.00 0.00 0.00 100
20260904230041 63 304 8.0 16.0 0.00 0.00 0.00 100
20260904225841 64 307 6.0 12.0 0.00 0.00 0.00 100
20260904225641 64 291 8.0 12.0 0.00 0.00 0.00 100
20260904225440 65 306 6.0 11.0 0.00 0.00 0.00 100
20260904225240 66 228 9.0 21.0 0.00 0.00 0.00 100
20260904225038 66 202 13.0 25.0 0.00 0.00 0.00 100
20260904224838 66 180 11.0 25.0 0.00 0.00 0.00 100
20260904224638 66 222 8.0 17.0 0.00 0.00 0.00 100
20260904224438 66 123 10.0 16.0 0.00 0.00 0.00 100
20260904224238 66 166 13.0 23.0 0.00 0.00 0.00 100
20260904224038 65 131 11.0 21.0 0.00 0.00 0.00 100
20260904223838 65 138 12.0 17.0 0.00 0.00 0.00 100
20260904223638 65 163 13.0 20.0 0.00 0.00 0.00 100
20260904223438 65 162 13.0 20.0 0.00 0.00 0.00 100
20260904223238 66 141 14.0 21.0 0.00 0.00 0.00 100
20260904223036 65 118 12.0 20.0 0.00 0.00 0.00 100
20260904222834 65 125 12.0 16.0 0.00 0.00 0.00 100
20260904222634 65 172 15.0 27.0 0.00 0.00 0.00 100
20260904222434 65 146 13.0 22.0 0.00 0.00 0.00 100
20260904222233 65 136 13.0 19.0 0.00 0.00 0.00 100
20260904222033 65 110 12.0 18.0 0.00 0.00 0.00 100
20260904221833 65 136 12.0 23.0 0.00 0.00 0.00 100
20260904221633 65 129 13.0 20.0 0.00 0.00 0.00 100
20260904221433 65 128 16.0 24.0 0.00 0.00 0.00 100
20260904221233 65 154 13.0 20.0 0.00 0.00 0.00 100
20260904221031 65 152 12.0 16.0 0.00 0.00 0.00 100
20260904220832 65 123 11.0 16.0 0.00 0.00 0.00 100
20260904220632 65 115 12.0 21.0 0.00 0.00 0.00 100
20260904220432 65 113 12.0 17.0 0.00 0.00 0.00 100
20260904220231 65 130 11.0 15.0 0.00 0.00 0.00 100
20260904220031 65 105 11.0 17.0 0.00 0.00 0.00 100
20260904215831 65 109 12.0 20.0 0.00 0.00 0.00 100
20260904215631 66 129 12.0 18.0 0.00 0.00 0.00 100
20260904215431 66 147 13.0 18.0 0.00 0.00 0.00 100
20260904215231 66 148 13.0 18.0 0.00 0.00 0.00 100
20260904215029 66 113 12.0 18.0 0.00 0.00 0.00 100
20260904214829 66 144 12.0 21.0 0.00 0.00 0.00 100
20260904214629 66 174 12.0 21.0 0.00 0.00 0.00 100
20260904214429 66 150 13.0 21.0 0.00 0.00 0.00 100
20260904214229 66 160 13.0 22.0 0.00 0.00 0.00 100
20260904214029 66 187 16.0 23.0 0.00 0.00 0.00 100
20260904213829 66 163 16.0 23.0 0.00 0.00 0.00 100
20260904213630 66 178 16.0 22.0 0.00 0.00 0.00 100
20260904213422 66 167 12.0 20.0 0.00 0.00 0.00 100
20260904213222 66 132 12.0 20.0 0.00 0.00 0.00 100
20260904213020 66 151 14.0 20.0 0.00 0.00 0.00 100
20260904212820 66 150 13.0 19.0 0.00 0.00 0.00 100
20260904212620 66 153 14.0 22.0 0.00 0.00 0.00 100
20260904212420 66 152 16.0 25.0 0.00 0.00 0.00 100
20260904212220 66 178 14.0 25.0 0.00 0.00 0.00 100
20260904212020 66 128 10.0 22.0 0.00 0.00 0.00 100
20260904211820 66 147 12.0 23.0 0.00 0.00 0.00 100
20260904211620 66 156 14.0 23.0 0.00 0.00 0.00 100
20260904211420 66 119 13.0 21.0 0.00 0.00 0.00 100
20260904211220 66 151 14.0 20.0 0.00 0.00 0.00 100
20260904211018 66 160 13.0 20.0 0.00 0.00 0.00 100
20260904210818 66 135 12.0 19.0 0.00 0.00 0.00 100
20260904210618 66 136 13.0 25.0 0.00 0.00 0.00 100
20260904210418 66 116 11.0 16.0 0.00 0.00 0.00 100
20260904210218 66 119 12.0 20.0 0.00 0.00 0.00 100
20260904210018 66 103 12.0 20.0 0.00 0.00 0.00 100
20260904205817 66 133 14.0 23.0 0.00 0.00 0.00 100
20260904205617 66 160 15.0 24.0 0.00 0.00 0.00 100
20260904205417 66 165 13.0 22.0 0.00 0.00 0.00 100
20260904205217 66 135 13.0 22.0 0.00 0.00 0.00 100
20260904205015 66 139 13.0 19.0 0.00 0.00 0.00 100
20260904204815 66 124 12.0 21.0 0.00 0.00 0.00 100
20260904204615 66 141 12.0 17.0 0.00 0.00 0.00 100
20260904204415 66 151 14.0 21.0 0.00 0.00 0.00 100
20260904204215 66 122 13.0 23.0 0.00 0.00 0.00 100
20260904204015 66 143 14.0 24.0 0.00 0.00 0.00 100
20260904203816 66 167 14.0 24.0 0.00 0.00 0.00 100
20260904203615 66 166 14.0 26.0 0.00 0.00 0.00 100
20260904203415 66 159 14.0 23.0 0.00 0.00 0.00 100
20260904203215 66 150 13.0 19.0 0.00 0.00 0.00 100
20260904203013 66 168 15.0 26.0 0.00 0.00 0.00 100
20260904202813 66 164 14.0 26.0 0.00 0.00 0.00 100
20260904202613 66 153 14.0 23.0 0.00 0.00 0.00 100
20260904202413 65 158 14.0 24.0 0.00 0.00 0.00 100
20260904202213 65 172 14.0 23.0 0.00 0.00 0.00 100
20260904202013 65 158 16.0 23.0 0.00 0.00 0.00 100
20260904201813 65 135 14.0 20.0 0.00 0.00 0.00 100
20260904201613 65 136 11.0 17.0 0.00 0.00 0.00 100
20260904201413 65 131 11.0 21.0 0.00 0.00 0.00 100
20260904201213 65 146 12.0 19.0 0.00 0.00 0.00 100
20260904201011 65 161 15.0 26.0 0.00 0.00 0.00 100
20260904200811 65 154 15.0 22.0 0.00 0.00 0.00 100
20260904200611 65 186 15.0 27.0 0.00 0.00 0.00 100
20260904200411 64 171 14.0 21.0 0.00 0.00 0.00 100
20260904200211 64 158 12.0 19.0 0.00 0.00 0.00 100
20260904200011 65 147 12.0 19.0 0.00 0.00 0.00 100
20260904195811 64 128 14.0 23.0 0.00 0.00 0.00 100
20260904195611 64 137 13.0 23.0 0.00 0.00 0.00 100
20260904195411 64 154 12.0 19.0 0.00 0.00 0.00 100
20260904195211 64 167 14.0 22.0 0.00 0.00 0.00 100
20260904195009 64 173 14.0 22.0 0.00 0.00 0.00 100
20260904194809 64 191 12.0 18.0 0.00 0.00 0.00 100
20260904194609 64 148 13.0 18.0 0.00 0.00 0.00 100
20260904194410 64 114 13.0 20.0 0.00 0.00 0.00 100
20260904194210 64 118 12.0 16.0 0.00 0.00 0.00 100
20260904194010 64 151 13.0 17.0 0.00 0.00 0.00 100
20260904193810 64 177 14.0 21.0 0.00 0.00 0.00 100
20260904193610 64 175 14.0 24.0 0.00 0.00 0.00 100
20260904193410 64 164 13.0 18.0 0.00 0.00 0.00 100
20260904193210 64 156 13.0 17.0 0.00 0.00 0.00 100
20260904193008 64 162 12.0 17.0 0.00 0.00 0.00 100
20260904192808 64 149 12.0 19.0 0.00 0.00 0.00 100
20260904192608 64 136 12.0 19.0 0.00 0.00 0.00 100
20260904192408 64 159 13.0 26.0 0.00 0.00 0.00 100
20260904192208 64 159 16.0 26.0 0.00 0.00 0.00 100
20260904192008 64 153 14.0 22.0 0.00 0.00 0.00 100
20260904191808 64 171 12.0 22.0 0.00 0.00 0.00 100
20260904191608 64 154 14.0 22.0 0.00 0.00 0.00 100